Погода Николо-Полома

Погода Николо-Полома : погода сейчас, прогноз погоды и архив. Всё, что Вы хотите узнать о погоде Николо-Полома!

Поиск расширенной информации на нашем сайте:

Другие новости

Новости СМИ2

Главная страница сайта

Новости сайта

03.07.2017

Напоминаем, что на нашем специализированном сайте Метеоцентр.Азия вы можете получить высокодетализированные автоматические прогнозы погоды по пунктам России, СНГ и мира в авиационном формате (включающие направление и скорость ветра, видимость, явления погоды, количество и форму облачности, нижнюю и верхнюю границу облачности).

Рекомендуем: Туалетная Бумага

Погода Николо-Полома - сегодня

Время (UTC), дата Ветер
(°,м/с) 
Видим.   Явления Облачность Т
(°С)
Тd
(°С)
f(%) Тe
(°С)
Pmin
(гПа)
dP
(гПа)
Po
(мм)
O2
(г/м3)
Тmin Tmax R s Состояние
почвы
21 18.02.18 150 (ЮВ) 4000 м  слаб. снег  10/8 300 м средняя 
[Frnb|As op]
-6.7 -7.7 93 -8  1020.7  -1  751  311           
03 19.02.18 110 (В) 4000 м  слаб. снег  10/8 300 м средняя 
[Frnb|As op]
-9.2 -10.1 93 -9  1018.5  -1.2  749  313  -9.2    84  равномерный
сухой снег
100% 
09 19.02.18 080 (В) 16000 м  в посл. час снег  10/3 600 м средняя 
[Sc|As trans]
-6.8 -9.6 80 -6  1017.6  -0.1  749  310           
18 19.02.18 тихо ()   4000 м  слаб. снег  10/0 средняя 
[As op]
-10.6 -11.5 93 -11  1017.2  -0.5  748  315           
21 19.02.18 тихо ()   4000 м  слаб. снег  10/0 средняя 
[As op]
-13.9 -15.3 89 -14  1016.5  -0.9  748  319           
03 20.02.18 300 (СЗ) 4000 м  слаб. снег  10/0 средняя 
[As op]
-15.2 -16.7 88 -15  1015.4  -0.8  747  320  -15.3    0.9  83  равномерный
сухой снег
100% 
09 20.02.18 230 (ЮЗ) 18000 м  {снег}  10/0 средняя 
[Ac As]
-9 -10.8 87 -9  1014.6  0.1  746  312           
18 20.02.18 320 (СЗ) 4000 м  слаб. снег  10/0 средняя 
[As trans]
-11.2 -12 94 -13  1015.2  0.2  747  315           
21 20.02.18 320 (СЗ) 4000 м  слаб. снег  10/0 средняя 
[As trans]
-12.8 -13.9 91 -15  1015.1  -0.2  747  317           
03 21.02.18 320 (СЗ) 4000 м  слаб. снег  10/0 средняя 
[As trans]
-13 -14.4 89 -15  1015.8  0.3  747  317  -13.2    83  равномерный
сухой снег
100% 
09 21.02.18 300 (СЗ) 50000 м  {снег}  10/0 средняя 
[As trans]
-10.9 -13.9 78 -13  1016.9  0.7  748  315           
18 21.02.18 330 (СЗ) 4000 м  слаб. снег  10/0 средняя 
[As trans]
-13.4 -15.5 84 -16  1020.3  750  319           
21 21.02.18 320 (СЗ) 4000 м  слаб. снег  10/0 средняя 
[As trans]
-15.6 -17.2 87 -18  1021.4  0.8  751  322           
03 22.02.18 310 (СЗ) 20000 м    ясно 
-19.9 -21.9 84 -23  1023.5  0.8  752  329  -19.9    0.3  83  равномерный
сухой снег
100% 
06 22.02.18 320 (СЗ) 50000 м    4/0 верхняя 
[Ci fib]
-19.4 -21.6 83 -22  1024.3  0.8  753  328  -20.9         
09 22.02.18 280 (З) 50000 м    ясно 
-14 -17.8 73 -16  1024.6  0.7  753  321           
12 22.02.18 300 (СЗ) 50000 м    ясно 
-9.6 -16.1 59 -11  1024.5  0.2  754  316           
15 22.02.18 260 (З) 50000 м    ясно 
-14 -16.7 80 -16  1024.9  0.1  754  322    -9.5       
18 22.02.18 250 (З) 20000 м    ясно 
-18 -19.3 90 -21  1025.2  754  327           
21 22.02.18 260 (З) 20000 м    ясно 
-17.2 -19.1 85 -21  1024.8  -0.3  753  326           
00 23.02.18 250 (З) 20000 м    ясно 
-18.1 -19.7 87 -21  1024.8  0.1  753  327           
03 23.02.18 250 (З) 20000 м    ясно 
-19.3 -21.1 86 -22  1024.7  -0.2  753  328  -19.3      83  равномерный
сухой снег
100% 
06 23.02.18 240 (ЮЗ) 50000 м    ясно 
-18.3 -20.3 84 -19  1024.7  -0.1  753  327  -20.3         
09 23.02.18 270 (З) 50000 м    3/0 средняя, верхняя 
[Ac trans|Ci fib]
-11.2 -15 73 -13  1024.1  0.1  753  318           
12 23.02.18 250 (З) 50000 м    10/8 600 м средняя 
[Sc|Ac trans]
-10 -14.2 71 -13  1023.5  -0.5  753  316           
Время (UTC), дата Ветер
(°,м/с) 
Видим.   Явления Облачность Т
(°С)
Тd
(°С)
f(%) Тe
(°С)
Pmin
(гПа)
dP
(гПа)
Po
(мм)
O2
(г/м3)
Тmin Tmax R s Состояние
почвы

Для получения пояснительной информации подведите курсор к названию столбца.

ПОГОДА Николо-Полома - архив

Всё, что Вы хотите узнать о погоде Николо-Полома - удобно и подробно!

Выберите нужную дату (начиная с 1 января 2015* года) и нажмите кнопку "Найти".
Будут отображены архивные сводки погоды по пункту Николо-Полома, начиная с указанной даты.


Отображать данные в формате CSV (для использования в таблицах Excel)


Внимание! Наш архив погоды предназначен исключительно для личного некоммерческого использования в познавательных целях. Если Вам необходимы официальные справки о состоянии погоды (для производственных, юридических, коммерческих и т.п. целей), обращайтесь в органы Росгидромета.

*Примечание: данная дата относится к архиву по метеостанциям СССР (Россия, СНГ, Балтия).
Архив по метеостанциям Зарубежной Европы и Азии (кроме Китая) хранится 10 дней, по другим регионам земного шара (Китай, Африка, Америка, Австралия, Океания) - 1 день.

Николо-Полома - район местоположения метеостанции


Название, широта, долгота, высота метеостанции:
Николо-Полома 58.3°ш. 43.4°д. 150 м над ур. моря [Российская Федерация]

Дополнительная информация

В oтличие oт бoльшинства пoгoдных сайтoв мы публикуем пoдрoбную метеoинфoрмацию в детальнoм прoфессиoнальнoм фoрмате.

Характеристики температуры и влажнoсти вoздуха измеряются на высoте 2 м в тени вдали oт зданий и деревьев.
Скoрoсть ветра измеряется на высoте 10 м (на урoвне рoста челoвека скoрoсть ветра ниже в 1.5-2 раза). Если метеoстанция нахoдится в гoрoде или в лесу, тo скoрoсть ветра занижена на 2-4 м/с пo сравнению с oткрытым местoм. Скoрoсть ветра над акватoриями крупных рек и oзёр, а также на вершинах хoлмoв на 2-5 м/с выше, чем в oбычных услoвиях.
Атмoсфернoе давление в разных тoчках местнoсти мoжет значительнo oтличаться oт давления на метеoстанции, в зависимoсти oт услoвий рельефа (при пoдъёме на 10 м давление пoнижается примернo на 1 мм рт.ст.).